Year,Month,Day,Hour,Minute,Value (Times are PST for temperature in C)
2010,07,16,00,00,14.70
2010,07,16,00,01,14.70
2010,07,16,00,02,14.70
2010,07,16,00,03,14.70
2010,07,16,00,04,14.60
2010,07,16,00,05,14.60
2010,07,16,00,06,14.60
2010,07,16,00,07,14.60
2010,07,16,00,08,14.50
2010,07,16,00,09,14.50
2010,07,16,00,10,14.50
2010,07,16,00,11,14.50
2010,07,16,00,12,14.50
2010,07,16,00,13,14.40
2010,07,16,00,14,14.40
2010,07,16,00,15,14.40
2010,07,16,00,16,14.40
2010,07,16,00,17,14.40
2010,07,16,00,18,14.40
2010,07,16,00,19,14.40
2010,07,16,00,20,14.40
2010,07,16,00,21,14.40
2010,07,16,00,22,14.40
2010,07,16,00,23,14.40
2010,07,16,00,24,14.40
2010,07,16,00,25,14.40
2010,07,16,00,26,14.40
2010,07,16,00,27,14.40
2010,07,16,00,28,14.40
2010,07,16,00,29,14.40
2010,07,16,00,30,14.30
2010,07,16,00,31,14.30
2010,07,16,00,32,14.30
2010,07,16,00,33,14.30
2010,07,16,00,34,14.30
2010,07,16,00,35,14.30
2010,07,16,00,36,14.20
2010,07,16,00,37,14.20
2010,07,16,00,38,14.20
2010,07,16,00,39,14.20
2010,07,16,00,40,14.20
2010,07,16,00,41,14.20
2010,07,16,00,42,14.20
2010,07,16,00,43,14.20
2010,07,16,00,44,14.20
2010,07,16,00,45,14.20
2010,07,16,00,46,14.20
2010,07,16,00,47,14.20
2010,07,16,00,48,14.20
2010,07,16,00,49,14.20
2010,07,16,00,50,14.20
2010,07,16,00,51,14.20
2010,07,16,00,52,14.20
2010,07,16,00,53,14.30
2010,07,16,00,54,14.30
2010,07,16,00,55,14.30
2010,07,16,00,56,14.30
2010,07,16,00,57,14.30
2010,07,16,00,58,14.30
2010,07,16,00,59,14.30
2010,07,16,01,00,14.30
2010,07,16,01,01,14.30
2010,07,16,01,02,14.30
2010,07,16,01,03,14.30
2010,07,16,01,04,14.30
2010,07,16,01,05,14.30
2010,07,16,01,06,14.20
2010,07,16,01,07,14.20
2010,07,16,01,08,14.20
2010,07,16,01,09,14.20
2010,07,16,01,10,14.20
2010,07,16,01,11,14.20
2010,07,16,01,12,14.20
2010,07,16,01,13,14.20
2010,07,16,01,14,14.20
2010,07,16,01,15,14.20
2010,07,16,01,16,14.20
2010,07,16,01,17,14.10
2010,07,16,01,18,14.10
2010,07,16,01,19,14.10
2010,07,16,01,20,14.00
2010,07,16,01,21,14.00
2010,07,16,01,22,14.00
2010,07,16,01,23,14.00
2010,07,16,01,24,14.00
2010,07,16,01,25,13.90
2010,07,16,01,26,13.90
2010,07,16,01,27,13.90
2010,07,16,01,28,13.90
2010,07,16,01,29,13.90
2010,07,16,01,30,13.80
2010,07,16,01,31,13.80
2010,07,16,01,32,13.80
2010,07,16,01,33,13.80
2010,07,16,01,34,13.80
2010,07,16,01,35,13.80
2010,07,16,01,36,13.70
2010,07,16,01,37,13.70
2010,07,16,01,38,13.70
2010,07,16,01,39,13.70
2010,07,16,01,40,13.70
2010,07,16,01,41,13.70
2010,07,16,01,42,13.70
2010,07,16,01,43,13.70
2010,07,16,01,44,13.70
2010,07,16,01,45,13.70
2010,07,16,01,46,13.70
2010,07,16,01,47,13.60
2010,07,16,01,48,13.70
2010,07,16,01,49,13.70
2010,07,16,01,50,13.70
2010,07,16,01,51,13.70
2010,07,16,01,52,13.70
2010,07,16,01,53,13.70
2010,07,16,01,54,13.70
2010,07,16,01,55,13.70
2010,07,16,01,56,13.70
2010,07,16,01,57,13.70
2010,07,16,01,58,13.70
2010,07,16,01,59,13.70
2010,07,16,02,00,13.70
2010,07,16,02,01,13.70
2010,07,16,02,02,13.60
2010,07,16,02,03,13.60
2010,07,16,02,04,13.60
2010,07,16,02,05,13.60
2010,07,16,02,06,13.60
2010,07,16,02,07,13.50
2010,07,16,02,08,13.50
2010,07,16,02,09,13.50
2010,07,16,02,10,13.50
2010,07,16,02,11,13.50
2010,07,16,02,12,13.40
2010,07,16,02,13,13.40
2010,07,16,02,14,13.40
2010,07,16,02,15,13.40
2010,07,16,02,16,13.40
2010,07,16,02,17,13.30
2010,07,16,02,18,13.30
2010,07,16,02,19,13.30
2010,07,16,02,20,13.30
2010,07,16,02,21,13.30
2010,07,16,02,22,13.30
2010,07,16,02,23,13.30
2010,07,16,02,24,13.30
2010,07,16,02,25,13.20
2010,07,16,02,26,13.20
2010,07,16,02,27,13.20
2010,07,16,02,28,13.20
2010,07,16,02,29,13.10
2010,07,16,02,30,13.10
2010,07,16,02,31,13.10
2010,07,16,02,32,13.10
2010,07,16,02,33,13.10
2010,07,16,02,34,13.00
2010,07,16,02,35,13.00
2010,07,16,02,36,13.00
2010,07,16,02,37,13.00
2010,07,16,02,38,13.00
2010,07,16,02,39,12.90
2010,07,16,02,40,12.90
2010,07,16,02,41,12.90
2010,07,16,02,42,12.90
2010,07,16,02,43,12.90
2010,07,16,02,44,12.80
2010,07,16,02,45,12.80
2010,07,16,02,46,12.80
2010,07,16,02,47,12.80
2010,07,16,02,48,12.80
2010,07,16,02,49,12.80
2010,07,16,02,50,12.80
2010,07,16,02,51,12.80
2010,07,16,02,52,12.80
2010,07,16,02,53,12.80
2010,07,16,02,54,12.70
2010,07,16,02,55,12.70
2010,07,16,02,56,12.70
2010,07,16,02,57,12.60
2010,07,16,02,58,12.60
2010,07,16,02,59,12.60
2010,07,16,03,00,12.50
2010,07,16,03,01,12.50
2010,07,16,03,02,12.50
2010,07,16,03,03,12.50
2010,07,16,03,04,12.50
2010,07,16,03,05,12.40
2010,07,16,03,06,12.40
2010,07,16,03,07,12.40
2010,07,16,03,08,12.40
2010,07,16,03,09,12.40
2010,07,16,03,10,12.40
2010,07,16,03,11,12.40
2010,07,16,03,12,12.40
2010,07,16,03,13,12.30
2010,07,16,03,14,12.30
2010,07,16,03,15,12.30
2010,07,16,03,16,12.30
2010,07,16,03,17,12.30
2010,07,16,03,18,12.30
2010,07,16,03,19,12.30
2010,07,16,03,20,12.30
2010,07,16,03,21,12.30
2010,07,16,03,22,12.30
2010,07,16,03,23,12.30
2010,07,16,03,24,12.30
2010,07,16,03,25,12.30
2010,07,16,03,26,12.20
2010,07,16,03,27,12.20
2010,07,16,03,28,12.20
2010,07,16,03,29,12.20
2010,07,16,03,30,12.20
2010,07,16,03,31,12.20
2010,07,16,03,32,12.20
2010,07,16,03,33,12.10
2010,07,16,03,34,12.10
2010,07,16,03,35,12.10
2010,07,16,03,36,12.10
2010,07,16,03,37,12.10
2010,07,16,03,38,12.00
2010,07,16,03,39,12.00
2010,07,16,03,40,12.00
2010,07,16,03,41,12.00
2010,07,16,03,42,11.90
2010,07,16,03,43,11.90
2010,07,16,03,44,11.90
2010,07,16,03,45,11.90
2010,07,16,03,46,11.80
2010,07,16,03,47,11.80
2010,07,16,03,48,11.80
2010,07,16,03,49,11.80
2010,07,16,03,50,11.80
2010,07,16,03,51,11.80
2010,07,16,03,52,11.80
2010,07,16,03,53,11.80
2010,07,16,03,54,11.80
2010,07,16,03,55,11.80
2010,07,16,03,56,11.80
2010,07,16,03,57,11.80
2010,07,16,03,58,11.80
2010,07,16,03,59,11.80
2010,07,16,04,00,11.80
2010,07,16,04,01,11.80
2010,07,16,04,02,11.80
2010,07,16,04,03,11.80
2010,07,16,04,04,11.80
2010,07,16,04,05,11.70
2010,07,16,04,06,11.70
2010,07,16,04,07,11.70
2010,07,16,04,08,11.70
2010,07,16,04,09,11.60
2010,07,16,04,10,11.60
2010,07,16,04,11,11.60
2010,07,16,04,12,11.60
2010,07,16,04,13,11.60
2010,07,16,04,14,11.60
2010,07,16,04,15,11.40
2010,07,16,04,16,11.40
2010,07,16,04,17,11.40
2010,07,16,04,18,11.40
2010,07,16,04,19,11.40
2010,07,16,04,20,11.40
2010,07,16,04,21,11.40
2010,07,16,04,22,11.30
2010,07,16,04,23,11.30
2010,07,16,04,24,11.30
2010,07,16,04,25,11.30
2010,07,16,04,26,11.30
2010,07,16,04,27,11.30
2010,07,16,04,28,11.20
2010,07,16,04,29,11.20
2010,07,16,04,30,11.20
2010,07,16,04,31,11.10
2010,07,16,04,32,11.10
2010,07,16,04,33,11.10
2010,07,16,04,34,11.10
2010,07,16,04,35,11.00
2010,07,16,04,36,10.90
2010,07,16,04,37,10.90
2010,07,16,04,38,10.90
2010,07,16,04,39,10.90
2010,07,16,04,40,10.90
2010,07,16,04,41,10.90
2010,07,16,04,42,10.90
2010,07,16,04,43,10.90
2010,07,16,04,44,10.80
2010,07,16,04,45,10.80
2010,07,16,04,46,10.80
2010,07,16,04,47,10.80
2010,07,16,04,48,10.70
2010,07,16,04,49,10.70
2010,07,16,04,50,10.70
2010,07,16,04,51,10.70
2010,07,16,04,52,10.70
2010,07,16,04,53,10.70
2010,07,16,04,54,10.70
2010,07,16,04,55,10.70
2010,07,16,04,56,10.70
2010,07,16,04,57,10.70
2010,07,16,04,58,10.80
2010,07,16,04,59,10.80
2010,07,16,05,00,10.80
2010,07,16,05,01,10.80
2010,07,16,05,02,10.80
2010,07,16,05,03,10.80
2010,07,16,05,04,10.70
2010,07,16,05,05,10.70
2010,07,16,05,06,10.70
2010,07,16,05,07,10.70
2010,07,16,05,08,10.70
2010,07,16,05,09,10.70
2010,07,16,05,10,10.70
2010,07,16,05,11,10.60
2010,07,16,05,12,10.60
2010,07,16,05,13,10.60
2010,07,16,05,14,10.60
2010,07,16,05,15,10.60
2010,07,16,05,16,10.60
2010,07,16,05,17,10.60
2010,07,16,05,18,10.60
2010,07,16,05,19,10.60
2010,07,16,05,20,10.50
2010,07,16,05,21,10.40
2010,07,16,05,22,10.40
2010,07,16,05,23,10.40
2010,07,16,05,24,10.40
2010,07,16,05,25,10.40
2010,07,16,05,26,10.40
2010,07,16,05,27,10.40
2010,07,16,05,28,10.50
2010,07,16,05,29,10.60
2010,07,16,05,30,10.60
2010,07,16,05,31,10.60
2010,07,16,05,32,10.60
2010,07,16,05,33,10.60
2010,07,16,05,34,10.60
2010,07,16,05,35,10.60
2010,07,16,05,36,10.60
2010,07,16,05,37,10.60
2010,07,16,05,38,10.60
2010,07,16,05,39,10.60
2010,07,16,05,40,10.60
2010,07,16,05,41,10.60
2010,07,16,05,42,10.60
2010,07,16,05,43,10.60
2010,07,16,05,44,10.60
2010,07,16,05,45,10.60
2010,07,16,05,46,10.60
2010,07,16,05,47,10.60
2010,07,16,05,48,10.60
2010,07,16,05,49,10.60
2010,07,16,05,50,10.60
2010,07,16,05,51,10.60
2010,07,16,05,52,10.60
2010,07,16,05,53,10.60
2010,07,16,05,54,10.70
2010,07,16,05,55,10.70
2010,07,16,05,56,10.70
2010,07,16,05,57,10.70
2010,07,16,05,58,10.80
2010,07,16,05,59,10.80
2010,07,16,06,00,10.90
2010,07,16,06,01,10.90
2010,07,16,06,02,10.90
2010,07,16,06,03,10.90
2010,07,16,06,04,10.90
2010,07,16,06,05,10.90
2010,07,16,06,06,10.90
2010,07,16,06,07,10.90
2010,07,16,06,08,10.90
2010,07,16,06,09,10.90
2010,07,16,06,10,10.90
2010,07,16,06,11,11.00
2010,07,16,06,12,11.10
2010,07,16,06,13,11.10
2010,07,16,06,14,11.10
2010,07,16,06,15,11.10
2010,07,16,06,16,11.10
2010,07,16,06,17,11.10
2010,07,16,06,18,11.10
2010,07,16,06,19,11.10
2010,07,16,06,20,11.10
2010,07,16,06,21,11.10
2010,07,16,06,22,11.10
2010,07,16,06,23,11.20
2010,07,16,06,24,11.20
2010,07,16,06,25,11.30
2010,07,16,06,26,11.30
2010,07,16,06,27,11.30
2010,07,16,06,28,11.30
2010,07,16,06,29,11.40
2010,07,16,06,30,11.40
2010,07,16,06,31,11.40
2010,07,16,06,32,11.40
2010,07,16,06,33,11.40
2010,07,16,06,34,11.40
2010,07,16,06,35,11.40
2010,07,16,06,36,11.40
2010,07,16,06,37,11.40
2010,07,16,06,38,11.40
2010,07,16,06,39,11.40
2010,07,16,06,40,11.60
2010,07,16,06,41,11.60
2010,07,16,06,42,11.60
2010,07,16,06,43,11.60
2010,07,16,06,44,11.60
2010,07,16,06,45,11.70
2010,07,16,06,46,11.70
2010,07,16,06,47,11.80
2010,07,16,06,48,11.80
2010,07,16,06,49,11.90
2010,07,16,06,50,12.00
2010,07,16,06,51,12.00
2010,07,16,06,52,12.10
2010,07,16,06,53,12.20
2010,07,16,06,54,12.20
2010,07,16,06,55,12.30
2010,07,16,06,56,12.40
2010,07,16,06,57,12.60
2010,07,16,06,58,12.70
2010,07,16,06,59,12.80
2010,07,16,07,00,12.90
2010,07,16,07,01,13.00
2010,07,16,07,02,13.00
2010,07,16,07,03,13.10
2010,07,16,07,04,13.10
2010,07,16,07,05,13.10
2010,07,16,07,06,13.20
2010,07,16,07,07,13.30
2010,07,16,07,08,13.30
2010,07,16,07,09,13.30
2010,07,16,07,10,13.30
2010,07,16,07,11,13.40
2010,07,16,07,12,13.50
2010,07,16,07,13,13.50
2010,07,16,07,14,13.60
2010,07,16,07,15,13.60
2010,07,16,07,16,13.70
2010,07,16,07,17,13.70
2010,07,16,07,18,13.70
2010,07,16,07,19,13.80
2010,07,16,07,20,13.90
2010,07,16,07,21,14.00
2010,07,16,07,22,14.10
2010,07,16,07,23,14.20
2010,07,16,07,24,14.30
2010,07,16,07,25,14.30
2010,07,16,07,26,14.20
2010,07,16,07,27,14.20
2010,07,16,07,28,14.20
2010,07,16,07,29,14.10
2010,07,16,07,30,14.00
2010,07,16,07,31,14.00
2010,07,16,07,32,14.00
2010,07,16,07,33,14.00
2010,07,16,07,34,14.00
2010,07,16,07,35,14.00
2010,07,16,07,36,14.00
2010,07,16,07,37,14.00
2010,07,16,07,38,14.00
2010,07,16,07,39,14.10
2010,07,16,07,40,14.20
2010,07,16,07,41,14.20
2010,07,16,07,42,14.30
2010,07,16,07,43,14.40
2010,07,16,07,44,14.50
2010,07,16,07,45,14.50
2010,07,16,07,46,14.50
2010,07,16,07,47,14.50
2010,07,16,07,48,14.60
2010,07,16,07,49,14.60
2010,07,16,07,50,14.60
2010,07,16,07,51,14.70
2010,07,16,07,52,14.70
2010,07,16,07,53,14.80
2010,07,16,07,54,14.80
2010,07,16,07,55,14.90
2010,07,16,07,56,14.90
2010,07,16,07,57,15.00
2010,07,16,07,58,15.10
2010,07,16,07,59,15.20
2010,07,16,08,00,15.20
2010,07,16,08,01,15.30
2010,07,16,08,02,15.30
2010,07,16,08,03,15.40
2010,07,16,08,04,15.50
2010,07,16,08,05,15.60
2010,07,16,08,06,15.60
2010,07,16,08,07,15.70
2010,07,16,08,08,15.80
2010,07,16,08,09,15.80
2010,07,16,08,10,15.80
2010,07,16,08,11,15.80
2010,07,16,08,12,15.80
2010,07,16,08,13,15.80
2010,07,16,08,14,15.80
2010,07,16,08,15,15.80
2010,07,16,08,16,15.80
2010,07,16,08,17,15.80
2010,07,16,08,18,15.80
2010,07,16,08,19,15.80
2010,07,16,08,20,15.80
2010,07,16,08,21,15.70
2010,07,16,08,22,15.70
2010,07,16,08,23,15.60
2010,07,16,08,24,15.60
2010,07,16,08,25,15.60
2010,07,16,08,26,15.60
2010,07,16,08,27,15.60
2010,07,16,08,28,15.70
2010,07,16,08,29,15.70
2010,07,16,08,30,15.80
2010,07,16,08,31,15.80
2010,07,16,08,32,15.70
2010,07,16,08,33,15.70
2010,07,16,08,34,15.70
2010,07,16,08,35,15.80
2010,07,16,08,36,15.80
2010,07,16,08,37,15.90
2010,07,16,08,38,16.00
2010,07,16,08,39,16.10
2010,07,16,08,40,16.10
2010,07,16,08,41,16.20
2010,07,16,08,42,16.20
2010,07,16,08,43,16.30
2010,07,16,08,44,16.40
2010,07,16,08,45,16.50
2010,07,16,08,46,16.60
2010,07,16,08,47,16.40
2010,07,16,08,48,16.50
2010,07,16,08,49,16.40
2010,07,16,08,50,16.40
2010,07,16,08,51,16.40
2010,07,16,08,52,16.40
2010,07,16,08,53,16.50
2010,07,16,08,54,16.60
2010,07,16,08,55,16.70
2010,07,16,08,56,16.70
2010,07,16,08,57,16.70
2010,07,16,08,58,16.70
2010,07,16,08,59,16.70
2010,07,16,09,00,16.70
2010,07,16,09,01,16.70
2010,07,16,09,02,16.70
2010,07,16,09,03,16.70
2010,07,16,09,04,16.80
2010,07,16,09,05,16.90
2010,07,16,09,06,17.00
2010,07,16,09,07,17.00
2010,07,16,09,08,17.00
2010,07,16,09,09,17.00
2010,07,16,09,10,17.00
2010,07,16,09,11,16.70
2010,07,16,09,12,16.50
2010,07,16,09,13,16.40
2010,07,16,09,14,16.30
2010,07,16,09,15,16.40
2010,07,16,09,16,16.40
2010,07,16,09,17,16.40
2010,07,16,09,18,16.40
2010,07,16,09,19,16.40
2010,07,16,09,20,16.40
2010,07,16,09,21,16.30
2010,07,16,09,22,16.30
2010,07,16,09,23,16.30
2010,07,16,09,24,16.10
2010,07,16,09,25,16.00
2010,07,16,09,26,15.80
2010,07,16,09,27,15.80
2010,07,16,09,28,15.90
2010,07,16,09,29,15.80
2010,07,16,09,30,15.80
2010,07,16,09,31,15.80
2010,07,16,09,32,15.90
2010,07,16,09,33,16.00
2010,07,16,09,34,16.00
2010,07,16,09,35,15.90
2010,07,16,09,36,15.80
2010,07,16,09,37,15.80
2010,07,16,09,38,15.80
2010,07,16,09,39,15.80
2010,07,16,09,40,15.80
2010,07,16,09,41,15.80
2010,07,16,09,42,15.70
2010,07,16,09,43,15.70
2010,07,16,09,44,15.70
2010,07,16,09,45,15.80
2010,07,16,09,46,16.10
2010,07,16,09,47,16.10
2010,07,16,09,48,16.00
2010,07,16,09,49,15.90
2010,07,16,09,50,15.90
2010,07,16,09,51,15.80
2010,07,16,09,52,15.80
2010,07,16,09,53,15.80
2010,07,16,09,54,15.80
2010,07,16,09,55,16.00
2010,07,16,09,56,16.10
2010,07,16,09,57,16.10
2010,07,16,09,58,16.10
2010,07,16,09,59,16.30
2010,07,16,10,00,16.40
2010,07,16,10,01,16.60
2010,07,16,10,02,16.70
2010,07,16,10,03,16.70
2010,07,16,10,04,16.70
2010,07,16,10,05,16.70
2010,07,16,10,06,16.70
2010,07,16,10,07,16.80
2010,07,16,10,08,16.80
2010,07,16,10,09,16.80
2010,07,16,10,10,16.80
2010,07,16,10,11,16.70
2010,07,16,10,12,16.70
2010,07,16,10,13,16.70
2010,07,16,10,14,16.70
2010,07,16,10,15,16.70
2010,07,16,10,16,16.60
2010,07,16,10,17,16.60
2010,07,16,10,18,16.60
2010,07,16,10,19,16.60
2010,07,16,10,20,16.60
2010,07,16,10,21,16.60
2010,07,16,10,22,16.50
2010,07,16,10,23,16.40
2010,07,16,10,24,16.50
2010,07,16,10,25,16.60
2010,07,16,10,26,16.70
2010,07,16,10,27,16.70
2010,07,16,10,28,16.80
2010,07,16,10,29,16.90
2010,07,16,10,30,17.00
2010,07,16,10,31,17.00
2010,07,16,10,32,16.90
2010,07,16,10,33,16.90
2010,07,16,10,34,16.70
2010,07,16,10,35,16.70
2010,07,16,10,36,16.70
2010,07,16,10,37,16.60
2010,07,16,10,38,16.60
2010,07,16,10,39,16.70
2010,07,16,10,40,16.70
2010,07,16,10,41,16.70
2010,07,16,10,42,16.70
2010,07,16,10,43,16.80
2010,07,16,10,44,16.90
2010,07,16,10,45,16.80
2010,07,16,10,46,17.00
2010,07,16,10,47,17.00
2010,07,16,10,48,17.10
2010,07,16,10,49,17.00
2010,07,16,10,50,17.00
2010,07,16,10,51,17.00
2010,07,16,10,52,16.90
2010,07,16,10,53,16.90
2010,07,16,10,54,16.70
2010,07,16,10,55,16.50
2010,07,16,10,56,16.40
2010,07,16,10,57,16.40
2010,07,16,10,58,16.60
2010,07,16,10,59,16.60
2010,07,16,11,00,16.60
2010,07,16,11,01,16.60
2010,07,16,11,02,16.50
2010,07,16,11,03,16.40
2010,07,16,11,04,16.40
2010,07,16,11,05,16.50
2010,07,16,11,06,16.60
2010,07,16,11,07,16.70
2010,07,16,11,08,16.70
2010,07,16,11,09,16.80
2010,07,16,11,10,16.70
2010,07,16,11,11,16.60
2010,07,16,11,12,16.60
2010,07,16,11,13,16.70
2010,07,16,11,14,16.70
2010,07,16,11,15,16.70
2010,07,16,11,16,16.70
2010,07,16,11,17,16.50
2010,07,16,11,18,16.30
2010,07,16,11,19,16.20
2010,07,16,11,20,16.10
2010,07,16,11,21,16.10
2010,07,16,11,22,16.30
2010,07,16,11,23,16.40
2010,07,16,11,24,16.40
2010,07,16,11,25,16.40
2010,07,16,11,26,16.40
2010,07,16,11,27,16.40
2010,07,16,11,28,16.60
2010,07,16,11,29,16.60
2010,07,16,11,30,16.60
2010,07,16,11,31,16.70
2010,07,16,11,32,16.80
2010,07,16,11,33,16.80
2010,07,16,11,34,16.70
2010,07,16,11,35,16.70
2010,07,16,11,36,16.60
2010,07,16,11,37,16.50
2010,07,16,11,38,16.40
2010,07,16,11,39,16.20
2010,07,16,11,40,16.10
2010,07,16,11,41,16.00
2010,07,16,11,42,15.80
2010,07,16,11,43,15.90
2010,07,16,11,44,15.80
2010,07,16,11,45,15.70
2010,07,16,11,46,15.70
2010,07,16,11,47,15.70
2010,07,16,11,48,15.70
2010,07,16,11,49,15.70
2010,07,16,11,50,15.70
2010,07,16,11,51,15.70
2010,07,16,11,52,15.70
2010,07,16,11,53,15.70
2010,07,16,11,54,15.60
2010,07,16,11,55,15.40
2010,07,16,11,56,15.30
2010,07,16,11,57,15.30
2010,07,16,11,58,15.30
2010,07,16,11,59,15.30
2010,07,16,12,00,15.30
2010,07,16,12,01,15.30
2010,07,16,12,02,15.30
2010,07,16,12,03,15.30
2010,07,16,12,04,15.50
2010,07,16,12,05,15.60
2010,07,16,12,06,15.60
2010,07,16,12,07,15.70
2010,07,16,12,08,15.60
2010,07,16,12,09,15.50
2010,07,16,12,10,15.50
2010,07,16,12,11,15.60
2010,07,16,12,12,15.70
2010,07,16,12,13,15.80
2010,07,16,12,14,15.90
2010,07,16,12,15,16.00
2010,07,16,12,16,15.90
2010,07,16,12,17,15.80
2010,07,16,12,18,15.60
2010,07,16,12,19,15.50
2010,07,16,12,20,15.40
2010,07,16,12,21,15.30
2010,07,16,12,22,15.30
2010,07,16,12,23,15.30
2010,07,16,12,24,15.30
2010,07,16,12,25,15.40
2010,07,16,12,26,15.50
2010,07,16,12,27,15.70
2010,07,16,12,28,15.80
2010,07,16,12,29,15.90
2010,07,16,12,30,16.00
2010,07,16,12,31,16.20
2010,07,16,12,32,16.30
2010,07,16,12,33,16.30
2010,07,16,12,34,16.20
2010,07,16,12,35,16.00
2010,07,16,12,36,15.80
2010,07,16,12,37,15.70
2010,07,16,12,38,15.60
2010,07,16,12,39,15.60
2010,07,16,12,40,15.50
2010,07,16,12,41,15.60
2010,07,16,12,42,15.70
2010,07,16,12,43,15.80
2010,07,16,12,44,15.80
2010,07,16,12,45,15.80
2010,07,16,12,46,15.80
2010,07,16,12,47,15.70
2010,07,16,12,48,15.60
2010,07,16,12,49,15.60
2010,07,16,12,50,15.40
2010,07,16,12,51,15.40
2010,07,16,12,52,15.40
2010,07,16,12,53,15.50
2010,07,16,12,54,15.60
2010,07,16,12,55,15.70
2010,07,16,12,56,15.80
2010,07,16,12,57,15.70
2010,07,16,12,58,15.70
2010,07,16,12,59,15.60
2010,07,16,13,00,15.50
2010,07,16,13,01,15.60
2010,07,16,13,02,15.70
2010,07,16,13,03,15.70
2010,07,16,13,04,15.70
2010,07,16,13,05,15.80
2010,07,16,13,06,15.80
2010,07,16,13,07,15.80
2010,07,16,13,08,15.80
2010,07,16,13,09,15.70
2010,07,16,13,10,15.60
2010,07,16,13,11,15.60
2010,07,16,13,12,15.80
2010,07,16,13,13,15.80
2010,07,16,13,14,15.70
2010,07,16,13,15,15.70
2010,07,16,13,16,15.80
2010,07,16,13,17,15.60
2010,07,16,13,18,15.50
2010,07,16,13,19,15.50
2010,07,16,13,20,15.70
2010,07,16,13,21,15.80
2010,07,16,13,22,15.80
2010,07,16,13,23,15.90
2010,07,16,13,24,16.10
2010,07,16,13,25,16.10
2010,07,16,13,26,16.20
2010,07,16,13,27,16.20
2010,07,16,13,28,16.30
2010,07,16,13,29,16.10
2010,07,16,13,30,16.10
2010,07,16,13,31,16.20
2010,07,16,13,32,16.30
2010,07,16,13,33,16.40
2010,07,16,13,34,16.30
2010,07,16,13,35,16.20
2010,07,16,13,36,16.10
2010,07,16,13,37,16.10
2010,07,16,13,38,16.00
2010,07,16,13,39,16.10
2010,07,16,13,40,16.20
2010,07,16,13,41,16.40
2010,07,16,13,42,16.60
2010,07,16,13,43,16.60
2010,07,16,13,44,16.40
2010,07,16,13,45,16.30
2010,07,16,13,46,16.20
2010,07,16,13,47,16.20
2010,07,16,13,48,16.20
2010,07,16,13,49,16.20
2010,07,16,13,50,16.20
2010,07,16,13,51,16.50
2010,07,16,13,52,16.70
2010,07,16,13,53,16.70
2010,07,16,13,54,16.70
2010,07,16,13,55,16.70
2010,07,16,13,56,16.80
2010,07,16,13,57,16.90
2010,07,16,13,58,17.00
2010,07,16,13,59,17.10
2010,07,16,14,00,17.20
2010,07,16,14,01,17.10
2010,07,16,14,02,16.90
2010,07,16,14,03,16.80
2010,07,16,14,04,16.70
2010,07,16,14,05,16.70
2010,07,16,14,06,16.80
2010,07,16,14,07,16.90
2010,07,16,14,08,16.90
2010,07,16,14,09,16.80
2010,07,16,14,10,16.80
2010,07,16,14,11,16.80
2010,07,16,14,12,17.00
2010,07,16,14,13,17.20
2010,07,16,14,14,17.30
2010,07,16,14,15,17.10
2010,07,16,14,16,16.90
2010,07,16,14,17,16.90
2010,07,16,14,18,16.80
2010,07,16,14,19,16.70
2010,07,16,14,20,16.70
2010,07,16,14,21,16.70
2010,07,16,14,22,16.70
2010,07,16,14,23,16.70
2010,07,16,14,24,16.70
2010,07,16,14,25,16.70
2010,07,16,14,26,16.60
2010,07,16,14,27,16.60
2010,07,16,14,28,16.60
2010,07,16,14,29,16.70
2010,07,16,14,30,16.70
2010,07,16,14,31,16.80
2010,07,16,14,32,16.90
2010,07,16,14,33,17.00
2010,07,16,14,34,17.00
2010,07,16,14,35,17.00
2010,07,16,14,36,17.10
2010,07,16,14,37,17.10
2010,07,16,14,38,16.90
2010,07,16,14,39,16.80
2010,07,16,14,40,16.70
2010,07,16,14,41,16.60
2010,07,16,14,42,16.60
2010,07,16,14,43,16.60
2010,07,16,14,44,16.50
2010,07,16,14,45,16.40
2010,07,16,14,46,16.40
2010,07,16,14,47,16.40
2010,07,16,14,48,16.40
2010,07,16,14,49,16.40
2010,07,16,14,50,16.40
2010,07,16,14,51,16.50
2010,07,16,14,52,16.40
2010,07,16,14,53,16.40
2010,07,16,14,54,16.50
2010,07,16,14,55,16.70
2010,07,16,14,56,16.80
2010,07,16,14,57,16.90
2010,07,16,14,58,16.90
2010,07,16,14,59,17.00
2010,07,16,15,00,17.00
2010,07,16,15,01,16.80
2010,07,16,15,02,16.70
2010,07,16,15,03,16.70
2010,07,16,15,04,16.50
2010,07,16,15,05,16.40
2010,07,16,15,06,16.40
2010,07,16,15,07,16.40
2010,07,16,15,08,16.40
2010,07,16,15,09,16.30
2010,07,16,15,10,16.30
2010,07,16,15,11,16.20
2010,07,16,15,12,16.20
2010,07,16,15,13,16.20
2010,07,16,15,14,16.30
2010,07,16,15,15,16.40
2010,07,16,15,16,16.50
2010,07,16,15,17,16.70
2010,07,16,15,18,16.70
2010,07,16,15,19,16.50
2010,07,16,15,20,16.40
2010,07,16,15,21,16.40
2010,07,16,15,22,16.60
2010,07,16,15,23,16.70
2010,07,16,15,24,16.70
2010,07,16,15,25,16.60
2010,07,16,15,26,16.70
2010,07,16,15,27,16.70
2010,07,16,15,28,16.60
2010,07,16,15,29,16.40
2010,07,16,15,30,16.40
2010,07,16,15,31,16.40
2010,07,16,15,32,16.40
2010,07,16,15,33,16.40
2010,07,16,15,34,16.40
2010,07,16,15,35,16.40
2010,07,16,15,36,16.40
2010,07,16,15,37,16.40
2010,07,16,15,38,16.60
2010,07,16,15,39,16.70
2010,07,16,15,40,16.90
2010,07,16,15,41,17.00
2010,07,16,15,42,17.10
2010,07,16,15,43,17.20
2010,07,16,15,44,17.20
2010,07,16,15,45,17.30
2010,07,16,15,46,17.30
2010,07,16,15,47,17.30
2010,07,16,15,48,17.40
2010,07,16,15,49,17.40
2010,07,16,15,50,17.50
2010,07,16,15,51,17.40
2010,07,16,15,52,17.40
2010,07,16,15,53,17.40
2010,07,16,15,54,17.40
2010,07,16,15,55,17.40
2010,07,16,15,56,17.30
2010,07,16,15,57,17.30
2010,07,16,15,58,17.30
2010,07,16,15,59,17.40
2010,07,16,16,00,17.50
2010,07,16,16,01,17.60
2010,07,16,16,02,17.50
2010,07,16,16,03,17.50
2010,07,16,16,04,17.40
2010,07,16,16,05,17.40
2010,07,16,16,06,17.40
2010,07,16,16,07,17.40
2010,07,16,16,08,17.50
2010,07,16,16,09,17.50
2010,07,16,16,10,17.40
2010,07,16,16,11,17.40
2010,07,16,16,12,17.30
2010,07,16,16,13,17.40
2010,07,16,16,14,17.40
2010,07,16,16,15,17.50
2010,07,16,16,16,17.50
2010,07,16,16,17,17.50
2010,07,16,16,18,17.50
2010,07,16,16,19,17.40
2010,07,16,16,20,17.40
2010,07,16,16,21,17.40
2010,07,16,16,22,17.40
2010,07,16,16,23,17.50
2010,07,16,16,24,17.60
2010,07,16,16,25,17.60
2010,07,16,16,26,17.60
2010,07,16,16,27,17.60
2010,07,16,16,28,17.50
2010,07,16,16,29,17.50
2010,07,16,16,30,17.50
2010,07,16,16,31,17.40
2010,07,16,16,32,17.30
2010,07,16,16,33,17.30
2010,07,16,16,34,17.30
2010,07,16,16,35,17.30
2010,07,16,16,36,17.30
2010,07,16,16,37,17.10
2010,07,16,16,38,17.10
2010,07,16,16,39,17.10
2010,07,16,16,40,17.10
2010,07,16,16,41,17.00
2010,07,16,16,42,17.10
2010,07,16,16,43,17.20
2010,07,16,16,44,17.30
2010,07,16,16,45,17.30
2010,07,16,16,46,17.30
2010,07,16,16,47,17.30
2010,07,16,16,48,17.20
2010,07,16,16,49,17.00
2010,07,16,16,50,17.00
2010,07,16,16,51,17.00
2010,07,16,16,52,17.10
2010,07,16,16,53,17.00
2010,07,16,16,54,16.90
2010,07,16,16,55,16.80
2010,07,16,16,56,16.80
2010,07,16,16,57,16.90
2010,07,16,16,58,16.90
2010,07,16,16,59,16.90
2010,07,16,17,00,16.90
2010,07,16,17,01,16.90
2010,07,16,17,02,17.00
2010,07,16,17,03,17.10
2010,07,16,17,04,17.20
2010,07,16,17,05,17.10
2010,07,16,17,06,17.00
2010,07,16,17,07,16.90
2010,07,16,17,08,16.90
2010,07,16,17,09,16.80
2010,07,16,17,10,16.70
2010,07,16,17,11,16.70
2010,07,16,17,12,16.70
2010,07,16,17,13,16.70
2010,07,16,17,14,16.70
2010,07,16,17,15,16.50
2010,07,16,17,16,16.40
2010,07,16,17,17,16.30
2010,07,16,17,18,16.40
2010,07,16,17,19,16.30